Regional Weather Roundup
Issued by NWS

Home | Current Version | Previous Version | Graphics & Text | Print | Product List | Glossary On
Versions: 1 2 3 4 5 6 7 8 9 10 11 12 13 14 15 16 17 18 19 20 21 22 23 24 25 26 27 28 29 30 31 32 33 34 35 36 37 38 39 40 41 42 43 44 45 46 47 48 49 50
000
ASUS43 KIND 221509
RWRIN

WEATHER ROUNDUP FOR INDIANA
NATIONAL WEATHER SERVICE INDIANAPOLIS IN
1000 AM EST MON DEC 22 2014

NOTE: "FAIR" INDICATES FEW OR NO CLOUDS BELOW 12,000 FEET WITH NO
SIGNIFICANT WEATHER AND/OR OBSTRUCTIONS TO VISIBILITY.

* - STATION DOES NOT REPORT WEATHER SUCH AS PRECIPITATION OR FOG.

+ - STATION NOT QUALITY CONTROLLED BY THE NATIONAL WEATHER SERVICE.
    USE DATA WITH CAUTION...ESPECIALLY DEWPOINT AND RELATIVE
    HUMIDITY OBSERVATIONS.

INZ001>003-010>013-019-020-221600-
NORTHWEST INDIANA

CITY           SKY/WX    TMP DP  RH WIND       PRES   REMARKS
GARY /AIRPORT/ CLOUDY    34  25  69 SE13      29.92F WCI  25
KNOX *+        CLOUDY    32  25  74 SE10      29.93F WCI  24
LA PORTE +     CLOUDY    33  30  90 E8        29.94F FOG     WCI  25
MICHIGAN CITY+ CLOUDY    32  25  74 SE8       29.94F WCI  25
MONTICELLO +   CLOUDY    32  29  89 SE6       29.92S WCI  27
RENSSELAER +   CLOUDY    32  32 100 E9        29.91F WCI  24
VALPARAISO     CLOUDY    31  27  85 SE9       29.94F FOG     WCI  23

$$

LMZ046-743>745-221600-
SOUTHERN LAKE MICHIGAN

STATION/POSITION TIME  TEMP WIND        PRES
                       AIR  DIR/SP/G
                 (UTC) (F)  (DEG/KT/KT) (MB)

$$

INZ004-005-014>016-021>024-221600-
NORTH CENTRAL INDIANA

CITY           SKY/WX    TMP DP  RH WIND       PRES   REMARKS
ELKHART        CLOUDY    30  23  74 E9        29.98F HAZE    WCI  22
GOSHEN         CLOUDY    30  25  81 E9        29.97F HAZE    WCI  22
LOGANSPORT +   CLOUDY    32  28  86 E8        29.94S FOG     WCI  25
PERU/GRISSOM   CLOUDY    33  33 100 SE12      29.93F WCI  24
ROCHESTER +    CLOUDY    34  30  86 E8        29.95F FOG     WCI  27
SOUTH BEND     CLOUDY    31  26  82 E10       29.96F HAZE    WCI  22
WARSAW +       MIX PCPN  30  27  86 E9        29.96F WCI  22

$$

INZ006>009-017-018-025>027-221600-
NORTHEAST INDIANA

CITY           SKY/WX    TMP DP  RH WIND       PRES   REMARKS
ANGOLA *+      SUNNY     27  25  93 SE8       30.00S WCI  18
AUBURN +       CLOUDY    28  25  86 E5        30.03S FOG     WCI  23
FORT WAYNE     CLOUDY    29  25  85 E10       29.99F FOG     WCI  20
HUNTINGTON +   CLOUDY    30  28  90 E7        29.97F FOG     WCI  23

$$

INZ028-029-035-036-043>045-051>053-221600-
WEST CENTRAL INDIANA

CITY           SKY/WX    TMP DP  RH WIND       PRES   REMARKS
GREENCASTLE +  CLOUDY    34  28  80 SE6       29.92S WCI  29
LAFAYETTE      CLOUDY    34  30  85 E7        29.92S WCI  28
TERRE HAUTE    LGT RAIN  36  31  82 SE7       29.92S

$$

INZ030>032-037>040-046>048-054>057-064-065-221600-
CENTRAL INDIANA

CITY           SKY/WX    TMP DP  RH WIND       PRES   REMARKS
ANDERSON       CLOUDY    36  28  75 SE17      29.97
CP ATTERBURY + CLOUDY    34  32  93 MISG      29.96S
FRANKFORT +    CLOUDY    34  32  91 E12       29.93F WCI  25
INDIANAPOLIS   CLOUDY    35  30  82 SE13      29.92F WCI  26
-EAGLE CREEK   CLOUDY    36  30  79 SE7       29.93F
KOKOMO *+      CLOUDY    32  28  86 SE9       29.94S WCI  24
MARION +       CLOUDY    33  28  83 SE12      29.96S WCI  24
MT COMFORT *+  CLOUDY    36  27  69 SE7       29.96S
SHELBYVILLE    CLOUDY    37  31  78 E8        29.95S
ZIONSVILLE +   CLOUDY    34  29  82 SE7       29.94S WCI  28

$$

INZ033-034-041-042-049-050-058-059-221600-
EAST CENTRAL INDIANA

CITY           SKY/WX    TMP DP  RH WIND       PRES   REMARKS
MUNCIE         PTSUNNY   36  29  75 SE10      29.96F

$$

INZ060-061-067>069-081>083-085>088-221600-
SOUTHWEST INDIANA

CITY           SKY/WX    TMP DP  RH WIND       PRES   REMARKS
EVANSVILLE     CLOUDY    46  39  76 SE9       29.90F
HUNTINGBURG *+ CLOUDY    43  36  75 SE8       29.92F
WASHINGTON +   DRIZZLE   37  34  87 SE5       29.92S

$$

INZ062-063-066-070>080-084-089>092-221600-
SOUTH CENTRAL AND SOUTHEAST INDIANA

CITY           SKY/WX    TMP DP  RH WIND       PRES   REMARKS
BLOOMINGTON    CLOUDY    36  31  82 SE5       29.93S

$$



USA.gov is the U.S. government's official web portal to all federal, state and local government web resources and services.